Location: Newark
(25.4800°N, 85.7200°E)
Time: 16:11:33
(UTC+00:00)

Explorer 11/Cluster Stage 4 - Pass Details

Date: 24 August 2019
Orbit: 467 x 1260 km, 28.8° (Epoch: 17 September)

Event Time Altitude Azimuth Distance (km) Brightness Sun altitude
Rises 00:40:31 0° 194° (SSW) 3,576 9.7 9.5°
Reaches altitude 10° 00:44:46 10° 168° (SSE) 2,819 9.5 10.4°
Maximum altitude 00:47:43 13° 142° (SE) 2,715 9.8 11.1°
Drops below altitude 10° 00:50:51 10° 118° (ESE) 3,035 10.7 11.8°
Sets 00:55:47 0° 93° (E) 4,121 12.2 12.9°
